Weather History for KCDA - January, 2013

Change the Weather History Date:

Saturday, January 5, 2013

  Actual Average (K1V4) Record (K1V4)
Temperature  
Mean Temperature 17 °F 17 °F  
Max Temperature 29 °F 27 °F 63 °F (1950)
Min Temperature 5 °F 8 °F -29 °F (1904)
Degree Days  
Heating Degree Days 48 48  
Month to date heating degree days 236  
Since 1 July heating degree days 3189  
Cooling Degree Days 0 0  
Month to date cooling degree days 0  
Year to date cooling degree days 0  
Moisture  
Dew Point 11 °F    
Average Humidity 68    
Maximum Humidity 84    
Minimum Humidity 50    
Precipitation  
Precipitation 0.00 in 0.08 in 0.62 in (1922)
Month to date precipitation 0.41  
Year to date precipitation 0.41  
Sea Level Pressure  
Sea Level Pressure 30.03 in    
Wind  
Wind Speed 9 mph (WNW)    
Max Wind Speed 22 mph    
Max Gust Speed 30 mph    
Visibility 8 miles    
Events Snow    
T = Trace of Precipitation, MM = Missing Value Source: NWS Daily Summary

Daily Weather History Graph

Daily Weather History Graph

Search for Another Location

Airport or City:

Trip Planner

Search our weather history database for the weather conditions in past years. The results will help you decide how hot, cold, wet, or windy it might be!

Date:

Astronomy

Jan. 05, 2013 Rise Set
Actual Time 7:24 AM EST 4:22 PM EST
Civil Twilight 6:51 AM EST 4:55 PM EST
Nautical Twilight 6:14 AM EST 5:32 PM EST
Astronomical Twilight 5:39 AM EST 6:07 PM EST
Moon 12:19 AM EST (1/5) 11:18 AM EST (1/5)
Length of Visible Light 10h 04m
Length of Day
8h 58m
Last Quarter, 44% of the Moon is Illuminated
Jan 5
Last Quarter
Jan 11
New
Jan 18
First Quarter
Jan 26
Full
Feb 3
Last Quarter

Hourly Weather History & Observations

Time (EST) Temp. Windchill Dew Point Humidity Pressure Visibility Wind Dir Wind Speed Gust Speed Precip Events Conditions
12:15 AM 28.6 °F 24.8 °F 22.6 °F 78% 29.70 in 3.0 mi SW 3.5 mph - N/A Snow Light Snow
12:35 AM 28.4 °F 23.3 °F 22.5 °F 78% 29.70 in 7.0 mi WSW 4.6 mph - N/A Snow Light Snow
12:55 AM 28.9 °F 21.1 °F 22.1 °F 76% 29.71 in 5.0 mi WSW 8.1 mph - N/A Snow Light Snow
1:15 AM 28.4 °F 21.2 °F 22.1 °F 77% 29.70 in 7.0 mi WSW 6.9 mph - N/A Snow Light Snow
1:35 AM 28.4 °F 20.4 °F 22.5 °F 78% 29.71 in 5.0 mi WSW 8.1 mph - N/A Snow Light Snow
1:55 AM 28.9 °F 19.2 °F 22.6 °F 77% 29.72 in 4.0 mi WSW 11.5 mph 16.1 mph N/A Snow Light Snow
2:15 AM 28.4 °F 23.3 °F 23.5 °F 82% 29.73 in 2.5 mi WSW 4.6 mph - N/A Snow Light Snow
2:35 AM 28.6 °F 18.7 °F 24.4 °F 84% 29.74 in 1.8 mi West 11.5 mph 19.6 mph N/A Snow Light Snow
2:55 AM 29.1 °F 17.9 °F 24.8 °F 84% 29.75 in 1.8 mi West 15.0 mph 19.6 mph N/A Snow Light Snow
3:15 AM 29.3 °F 18.2 °F 24.4 °F 82% 29.76 in 2.5 mi West 15.0 mph 27.6 mph N/A Snow Light Snow
3:35 AM 29.3 °F 19.1 °F 24.4 °F 82% 29.77 in 2.5 mi West 12.7 mph 20.7 mph N/A Snow Light Snow
3:55 AM 29.3 °F 19.6 °F 24.6 °F 83% 29.79 in 1.8 mi West 11.5 mph 23.0 mph N/A Snow Light Snow
4:15 AM 29.1 °F 18.9 °F 24.6 °F 83% 29.79 in 2.5 mi West 12.7 mph - N/A Snow Light Snow
4:35 AM 29.1 °F 17.9 °F 23.9 °F 81% 29.80 in 2.0 mi WNW 15.0 mph 24.2 mph N/A Snow Light Snow
4:55 AM 29.1 °F 19.4 °F 22.6 °F 77% 29.81 in 10.0 mi West 11.5 mph - N/A   Overcast
5:15 AM 29.3 °F 15.9 °F 22.1 °F 75% 29.83 in 4.0 mi WNW 21.9 mph 29.9 mph N/A Snow Light Snow
5:35 AM 28.4 °F 14.7 °F 20.8 °F 73% 29.86 in 3.0 mi WNW 21.9 mph 28.8 mph N/A Snow Light Snow
5:55 AM 27.3 °F 14.4 °F 17.1 °F 65% 29.88 in 7.0 mi West 18.4 mph 27.6 mph N/A   Scattered Clouds
6:15 AM 26.6 °F 13.4 °F 15.6 °F 63% 29.90 in 7.0 mi WNW 18.4 mph 25.3 mph N/A   Scattered Clouds
6:35 AM 26.6 °F 14.3 °F 16.5 °F 66% 29.92 in 10.0 mi WNW 16.1 mph 20.7 mph N/A   Mostly Cloudy
6:55 AM 26.6 °F 15.7 °F 16.3 °F 65% 29.94 in 10.0 mi WNW 12.7 mph 18.4 mph N/A Snow Light Snow
7:15 AM 26.4 °F 12.5 °F 15.8 °F 64% 29.95 in 10.0 mi WNW 20.7 mph 25.3 mph N/A   Overcast
7:35 AM 26.1 °F 12.0 °F 14.4 °F 61% 29.96 in 5.0 mi WNW 20.7 mph 26.5 mph N/A   Haze
8:15 AM 25.3 °F 14.1 °F 15.1 °F 65% 30.01 in 7.0 mi WNW 12.7 mph 18.4 mph N/A Snow Light Snow
8:35 AM 25.2 °F 13.3 °F 14.4 °F 64% 30.04 in 5.0 mi WNW 13.8 mph 20.7 mph N/A Snow Light Snow
8:55 AM 24.3 °F 12.2 °F 13.6 °F 64% 30.06 in 7.0 mi NW 13.8 mph 25.3 mph N/A   Overcast
9:15 AM 23.5 °F 9.9 °F 11.5 °F 60% 30.08 in 7.0 mi WNW 17.3 mph 24.2 mph N/A   Mostly Cloudy
9:35 AM 23.2 °F 8.2 °F 9.5 °F 56% 30.09 in 5.0 mi WNW 20.7 mph 27.6 mph N/A   Haze
9:55 AM 22.6 °F 8.7 °F 8.4 °F 55% 30.10 in 10.0 mi NW 17.3 mph 26.5 mph N/A   Scattered Clouds
10:15 AM 22.1 °F 6.4 °F 7.2 °F 53% 30.11 in 7.0 mi NW 21.9 mph 28.8 mph N/A   Clear
10:55 AM 22.1 °F 13.7 °F 7.3 °F 53% 30.12 in 10.0 mi NW 6.9 mph 17.3 mph N/A   Mostly Cloudy
11:15 AM 22.1 °F 15.9 °F 8.1 °F 55% 30.13 in 10.0 mi North 4.6 mph - N/A   Overcast
11:55 AM 21.9 °F 9.8 °F 7.9 °F 55% 30.15 in 10.0 mi West 12.7 mph 24.2 mph N/A   Overcast
12:15 PM 21.9 °F 8.2 °F 8.4 °F 56% 30.15 in 10.0 mi WNW 16.1 mph 24.2 mph N/A   Overcast
12:35 PM 21.9 °F 6.2 °F 8.2 °F 56% 30.15 in 10.0 mi West 21.9 mph 25.3 mph N/A   Overcast
12:55 PM 22.5 °F 9.4 °F 7.2 °F 52% 30.15 in 7.0 mi West 15.0 mph 24.2 mph N/A   Mostly Cloudy
1:15 PM 22.6 °F 13.4 °F 6.6 °F 50% 30.16 in 10.0 mi West 8.1 mph 19.6 mph N/A   Scattered Clouds
1:35 PM 21.7 °F 12.3 °F 5.7 °F 50% 30.16 in 10.0 mi West 8.1 mph 16.1 mph N/A   Scattered Clouds
1:55 PM 21.2 °F 8.9 °F 5.2 °F 50% 30.17 in 10.0 mi West 12.7 mph 20.7 mph N/A   Clear
2:15 PM 22.6 °F 11.3 °F 6.3 °F 50% 30.17 in 10.0 mi West 11.5 mph 18.4 mph N/A   Scattered Clouds
2:35 PM 22.1 °F 9.5 °F 7.2 °F 53% 30.16 in 10.0 mi WNW 13.8 mph 20.7 mph N/A   Scattered Clouds
2:55 PM 22.1 °F 11.3 °F 7.5 °F 54% 30.17 in 10.0 mi West 10.4 mph - N/A   Clear
3:15 PM 21.6 °F 12.1 °F 7.5 °F 55% 30.18 in 10.0 mi West 8.1 mph - N/A   Scattered Clouds
3:35 PM 21.2 °F 14.9 °F 7.7 °F 56% 30.17 in 10.0 mi West 4.6 mph - N/A   Scattered Clouds
3:55 PM 20.8 °F 13.2 °F 7.5 °F 56% 30.17 in 10.0 mi West 5.8 mph - N/A   Scattered Clouds
4:15 PM 20.1 °F 13.6 °F 7.9 °F 59% 30.18 in 10.0 mi West 4.6 mph - N/A   Clear
4:35 PM 16.5 °F 11.0 °F 6.8 °F 66% 30.18 in 10.0 mi NNE 3.5 mph - N/A   Clear
4:55 PM 17.2 °F 10.2 °F 5.0 °F 59% 30.18 in 10.0 mi NNE 4.6 mph - N/A   Clear
5:15 PM 13.1 °F 4.0 °F 4.5 °F 68% 30.18 in 10.0 mi North 5.8 mph - N/A   Clear
5:55 PM 16.2 °F 10.6 °F 4.5 °F 60% 30.19 in 10.0 mi NNE 3.5 mph - N/A   Clear
6:15 PM 14.7 °F - 4.3 °F 63% 30.19 in 10.0 mi Calm Calm - N/A   Clear
6:35 PM 12.4 °F - 3.9 °F 69% 30.20 in 10.0 mi Calm Calm - N/A   Clear
6:55 PM 11.7 °F - 2.8 °F 68% 30.20 in 10.0 mi Calm Calm - N/A   Clear
7:15 PM 12.2 °F - 4.6 °F 72% 30.19 in 10.0 mi Calm Calm - N/A   Clear
7:35 PM 13.3 °F - 4.8 °F 69% 30.18 in 10.0 mi Calm Calm - N/A   Clear
7:55 PM 10.4 °F 4.0 °F 3.9 °F 75% 30.18 in 10.0 mi South 3.5 mph - N/A   Clear
8:15 PM 8.2 °F - 3.2 °F 80% 30.18 in 10.0 mi Calm Calm - N/A   Clear
8:55 PM 9.7 °F - 4.5 °F 79% 30.18 in 10.0 mi Calm Calm - N/A   Clear
9:15 PM 5.9 °F - 1.4 °F 82% 30.20 in 10.0 mi Calm Calm - N/A   Clear
9:35 PM 5.5 °F - 1.2 °F 82% 30.19 in 10.0 mi Calm Calm - N/A   Clear
9:55 PM 6.8 °F -2.0 °F 2.3 °F 82% 30.18 in 10.0 mi SW 4.6 mph - N/A   Clear
10:15 PM 7.7 °F - 3.2 °F 82% 30.18 in 10.0 mi Calm Calm - N/A   Clear
10:35 PM 5.7 °F - 1.2 °F 82% 30.18 in 10.0 mi Calm Calm - N/A   Clear
10:55 PM 6.6 °F - 2.3 °F 82% 30.15 in 10.0 mi Calm Calm - N/A   Clear
11:15 PM 5.7 °F -1.3 °F 1.2 °F 82% 30.17 in 10.0 mi WSW 3.5 mph - N/A   Clear
11:35 PM 5.9 °F - 1.4 °F 82% 30.16 in 10.0 mi Calm Calm - N/A   Clear
11:55 PM 6.6 °F - 2.3 °F 82% 30.16 in 10.0 mi Calm Calm - N/A   Clear